Weather History for Taos, NM

Change the Weather History Date:

Friday, April 4, 2014

  Actual Average Record
Temperature  
Mean Temperature 30 °F -  
Max Temperature 51 °F 54 °F 71 °F (2002)
Min Temperature 10 °F 24 °F 10 °F (2014)
Degree Days  
Heating Degree Days 34    
Moisture  
Dew Point 14 °F    
Average Humidity 57    
Maximum Humidity 93    
Minimum Humidity 17    
Precipitation  
Precipitation 0.00 in - - ()
Sea Level Pressure  
Sea Level Pressure 30.10 in    
Wind  
Wind Speed 4 mph (WSW)    
Max Wind Speed 15 mph    
Max Gust Speed 23 mph    
Visibility 10 miles    
Events      
Averages and records for this station are not official NWS values.
T = Trace of Precipitation, MM = Missing Value Source: NWS Daily Summary

Daily Weather History Graph

Daily Weather History Graph

Search for Another Location

Airport:

Trip Planner

Search our weather history database for the weather conditions in past years. The results will help you decide how hot, cold, wet, or windy it might be!

Date:

Astronomy

Apr. 04, 2014 Rise Set
Actual Time 6:44 AM MDT 7:27 PM MDT
Civil Twilight 6:18 AM MDT 7:53 PM MDT
Nautical Twilight 5:47 AM MDT 8:24 PM MDT
Astronomical Twilight 5:15 AM MDT 8:56 PM MDT
Moon 10:09 AM MDT (4/4) No Moon Set
Length of Visible Light 13h 35m
Length of Day
12h 43m
Waxing Crescent, 26% of the Moon is Illuminated
Apr 4
Waxing Crescent
Apr 7
First Quarter
Apr 15
Full
Apr 22
Last Quarter
Apr 29
New

Hourly Weather History & Observations

Time (MDT) Temp. Windchill Dew Point Humidity Pressure Visibility Wind Dir Wind Speed Gust Speed Precip Events Conditions
12:15 AM 23.0 °F - 19.4 °F 86% 30.17 in 10.0 mi Calm Calm - N/A   Clear
12:35 AM 23.0 °F - 19.4 °F 86% 30.16 in 10.0 mi Calm Calm - N/A   Clear
12:55 AM 19.4 °F - 14.0 °F 80% 30.17 in 10.0 mi Calm Calm - N/A   Clear
1:15 AM 19.4 °F - 15.8 °F 86% 30.16 in 10.0 mi Calm Calm - N/A   Clear
1:35 AM 19.4 °F - 15.8 °F 86% 30.16 in 10.0 mi Calm Calm - N/A   Clear
1:55 AM 19.4 °F - 17.6 °F 93% 30.16 in 10.0 mi Calm Calm - N/A   Clear
2:15 AM 21.2 °F - 19.4 °F 93% 30.16 in 5.0 mi Calm Calm - N/A   Clear
2:35 AM 19.4 °F - 15.8 °F 86% 30.16 in 1.5 mi Calm Calm - N/A   Scattered Clouds
2:55 AM 19.4 °F 14.3 °F 15.8 °F 86% 30.15 in 10.0 mi NE 3.5 mph - N/A   Clear
3:15 AM 17.6 °F - 14.0 °F 86% 30.16 in 10.0 mi Calm Calm - N/A   Scattered Clouds
3:35 AM 19.4 °F 12.8 °F 15.8 °F 86% 30.16 in 10.0 mi North 4.6 mph - N/A   Partly Cloudy
3:55 AM 15.8 °F 10.2 °F 12.2 °F 86% 30.16 in 10.0 mi North 3.5 mph - N/A   Clear
4:15 AM 15.8 °F 8.6 °F 12.2 °F 86% 30.15 in 10.0 mi NNE 4.6 mph - N/A   Clear
4:35 AM 15.8 °F 6.1 °F 12.2 °F 86% 30.15 in 10.0 mi NNE 6.9 mph - N/A   Clear
4:55 AM 15.8 °F 10.2 °F 12.2 °F 86% 30.15 in 10.0 mi NNE 3.5 mph - N/A   Clear
5:15 AM 15.8 °F 10.2 °F 12.2 °F 86% 30.16 in 10.0 mi North 3.5 mph - N/A   Clear
5:35 AM 14.0 °F 6.5 °F 8.6 °F 79% 30.16 in 10.0 mi North 4.6 mph - N/A   Clear
5:55 AM 15.8 °F 7.2 °F 12.2 °F 86% 30.16 in 10.0 mi North 5.8 mph - N/A   Clear
6:15 AM 15.8 °F 10.2 °F 10.4 °F 79% 30.15 in 10.0 mi NNE 3.5 mph - N/A   Clear
6:35 AM 15.8 °F - 14.0 °F 93% 30.15 in 10.0 mi Calm Calm - N/A   Clear
6:55 AM 10.4 °F 2.2 °F 8.6 °F 92% 30.15 in 10.0 mi North 4.6 mph - N/A   Clear
7:15 AM 10.4 °F 0.8 °F 8.6 °F 92% 30.16 in 10.0 mi North 5.8 mph - N/A   Clear
7:35 AM 15.8 °F 7.2 °F 12.2 °F 86% 30.17 in 10.0 mi North 5.8 mph - N/A   Clear
7:55 AM 19.4 °F 12.8 °F 17.6 °F 93% 30.17 in 10.0 mi North 4.6 mph - N/A   Clear
8:15 AM 21.2 °F - 19.4 °F 93% 30.18 in 10.0 mi Calm Calm - N/A   Clear
8:35 AM 24.8 °F - 21.2 °F 86% 30.18 in 10.0 mi Calm Calm - N/A   Clear
8:55 AM 26.6 °F - 24.8 °F 93% 30.18 in 10.0 mi Calm Calm - N/A   Clear
9:15 AM 28.4 °F - 24.8 °F 86% 30.19 in 10.0 mi Calm Calm - N/A   Clear
9:35 AM 28.4 °F - 24.8 °F 86% 30.19 in 10.0 mi Calm Calm - N/A   Clear
9:55 AM 32.0 °F - 26.6 °F 80% 30.19 in 10.0 mi Calm Calm - N/A   Clear
10:15 AM 33.8 °F 28.6 °F 24.8 °F 70% 30.19 in 10.0 mi WSW 5.8 mph - N/A   Clear
10:35 AM 35.6 °F 30.7 °F 24.8 °F 65% 30.19 in 10.0 mi West 5.8 mph - N/A   Clear
10:55 AM 35.6 °F 30.7 °F 23.0 °F 60% 30.19 in 10.0 mi SSW 5.8 mph - N/A   Clear
11:15 AM 35.6 °F 31.7 °F 23.0 °F 60% 30.19 in 10.0 mi WSW 4.6 mph - N/A   Clear
11:35 AM 37.4 °F 34.9 °F 24.8 °F 60% 30.18 in 10.0 mi WSW 3.5 mph - N/A   Clear
11:55 AM 37.4 °F 32.1 °F 24.8 °F 60% 30.16 in 10.0 mi SSE 6.9 mph - N/A   Clear
12:15 PM 39.2 °F 37.0 °F 21.2 °F 49% 30.16 in 10.0 mi NE 3.5 mph - N/A   Clear
12:55 PM 42.8 °F 36.6 °F 19.4 °F 39% 30.13 in 10.0 mi SW 11.5 mph - N/A   Clear
1:15 PM 42.8 °F 37.5 °F 19.4 °F 39% 30.12 in 10.0 mi WSW 9.2 mph - N/A   Clear
1:35 PM 44.6 °F 40.2 °F 19.4 °F 37% 30.11 in 10.0 mi West 8.1 mph - N/A   Clear
1:55 PM 44.6 °F 42.2 °F 21.2 °F 39% 30.11 in 10.0 mi WSW 4.6 mph - N/A   Partly Cloudy
2:15 PM 44.6 °F 43.1 °F 19.4 °F 37% 30.09 in 10.0 mi WSW 3.5 mph - N/A   Clear
2:35 PM 46.4 °F - 17.6 °F 32% 30.07 in 10.0 mi Calm Calm - N/A   Clear
2:55 PM 46.4 °F 43.5 °F 15.8 °F 29% 30.06 in 10.0 mi SW 5.8 mph - N/A   Scattered Clouds
3:15 PM 48.2 °F - 12.2 °F 24% 30.05 in 10.0 mi West 8.1 mph - N/A   Scattered Clouds
3:35 PM 48.2 °F - 12.2 °F 24% 30.04 in 10.0 mi WSW 12.7 mph 17.3 mph N/A   Clear
3:55 PM 48.2 °F - 12.2 °F 24% 30.03 in 10.0 mi South 15.0 mph - N/A   Partly Cloudy
4:15 PM 51.8 °F - 10.4 °F 19% 30.02 in 10.0 mi SW 15.0 mph 18.4 mph N/A   Partly Cloudy
4:35 PM 51.8 °F - 8.6 °F 18% 30.02 in 10.0 mi SW 9.2 mph - N/A   Clear
4:55 PM 51.8 °F - 8.6 °F 18% 30.01 in 10.0 mi SSW 12.7 mph - N/A   Partly Cloudy
5:15 PM 51.8 °F - 8.6 °F 18% 30.01 in 10.0 mi WSW 15.0 mph 23.0 mph N/A   Clear
5:35 PM 50.0 °F - 6.8 °F 17% 30.01 in 10.0 mi SW 11.5 mph - N/A   Clear
5:55 PM 50.0 °F - 6.8 °F 17% 30.01 in 10.0 mi WSW 6.9 mph - N/A   Clear
6:15 PM 50.0 °F - 6.8 °F 17% 30.00 in 10.0 mi SSW 12.7 mph 16.1 mph N/A   Clear
6:35 PM 48.2 °F - 6.8 °F 19% 30.01 in 10.0 mi SW 10.4 mph - N/A   Clear
6:55 PM 48.2 °F - 5.0 °F 17% 30.01 in 10.0 mi SSW 11.5 mph - N/A   Clear
7:15 PM 46.4 °F 42.4 °F 6.8 °F 20% 30.01 in 10.0 mi SSW 8.1 mph - N/A   Clear
7:35 PM 42.8 °F 38.6 °F 6.8 °F 23% 30.01 in 10.0 mi SSW 6.9 mph - N/A   Clear
7:55 PM 39.2 °F 33.6 °F 6.8 °F 26% 30.01 in 10.0 mi South 8.1 mph - N/A   Clear
8:15 PM 37.4 °F 33.8 °F 8.6 °F 30% 30.01 in 10.0 mi South 4.6 mph - N/A   Clear
8:35 PM 35.6 °F 28.6 °F 8.6 °F 33% 30.02 in 10.0 mi ESE 9.2 mph - N/A   Clear
8:55 PM 33.8 °F 25.8 °F 8.6 °F 35% 30.02 in 10.0 mi ESE 10.4 mph - N/A   Clear
9:15 PM 32.0 °F 23.6 °F 8.6 °F 38% 30.02 in 10.0 mi East 10.4 mph - N/A   Clear
9:35 PM 32.0 °F 23.0 °F 8.6 °F 38% 30.02 in 10.0 mi ESE 11.5 mph - N/A   Scattered Clouds
9:55 PM 30.2 °F 21.9 °F 10.4 °F 44% 30.02 in 10.0 mi East 9.2 mph - N/A   Partly Cloudy
10:15 PM 30.2 °F 21.3 °F 12.2 °F 47% 30.02 in 10.0 mi East 10.4 mph - N/A   Mostly Cloudy
10:35 PM 32.0 °F 26.4 °F 12.2 °F 44% 30.01 in 10.0 mi ENE 5.8 mph - N/A   Scattered Clouds
10:55 PM 32.0 °F 26.4 °F 12.2 °F 44% 30.01 in 10.0 mi ENE 5.8 mph - N/A   Mostly Cloudy
11:15 PM 30.2 °F - 12.2 °F 47% 30.01 in 10.0 mi Calm Calm - N/A   Overcast
11:35 PM 32.0 °F 27.5 °F 12.2 °F 44% 30.00 in 10.0 mi North 4.6 mph - N/A   Overcast
11:55 PM 32.0 °F 25.6 °F 12.2 °F 44% 30.00 in 10.0 mi North 6.9 mph - N/A   Partly Cloudy